SCP
0 0 0 0 0 0 0 0 0 0 0 0 0 0 0 0 0 0 0 0 0 0 0 0 0 0 0 0 0 0 0 0 0 0 0 -0 0 0 0 0 0 0 0 0
0 0 0 0 0 -0 0 0 0 0 0 0 0 0 0 0 0 0 0 0 0 0 0 0 0 0 0 0 0 0 0 0 0 0 0 0 0 0 0 0 0 0 0 0
0 0 0 0 0 0 0 0 0 0 0 0 0 0 0 0 0 0 0 0 0 0 0 0 0 0 0 0 0 0 0 0 0 0 0 0 0 0 0 0 0 0 0 0
0 0 0 0 0 0 0 0 0 0 0 0 0 0 0 0 0 0 0 0 0 0 0 0 0 0 0 0 0 0 0 0 0 0 0 0 0 0 0 0 0 0 0 0
0 0 0 0 0 0 0 0 0 0 0 0 0 0 0 0 0 0 0 0 0 0 0 0 0 0 0 0 0 0 0 0 0 0 0 0 0 0 0 0 0 0 0 0
0 0 0 0 0 0 0 0 0 0 0 0 0 0 0 0 0 0 0 0 0 0 0 0 0 0 0 0 0 0 0 0 0 0 0 0 0 0 0 0 0 0 0 0
0 0 0 0 0 0 0 0 0 0 0 0 0 0 0 0 0 0 0 0 0 0 0 0 0 0 0 0 0 0 0 0 0 0 0 0 0 0 0 0 0 0 0 0
0 0 0 0 0 0 0 0 0 0 0 0 0 0 0 0 0 0 0 0 0 0 0 0 0 0 0 0 0 0 0 0 0 0 0 0 0 0 0 0 -0 0 0 0
0 0 0 0 0 0 0 0 0 0 0 0 0 0 0 0 0 0 0 0 0 0 0 0 0 0 0 0 0 0 0 0 0 0 0 0 0 0 0 0 0 0 0 0
0 0 0 0 0 0 0 0 0 0 0 0 0 0 0 0 0 0 0 0 0 0 0 0 0 0 0 0 0 0 0 0 0 0 0 0 0 0 0 0 0 0 0 0
0 0 0 0 0 0 0 0 0 0 0 0 0 0 0 0 0 0 0 0 0 0 0 0 0 0 0 0 0 0 0 0 0 0 0 0 0 0 0 0 0 0 0 0
0 0 0 0 0 0 0 0 0 0 0 0 0 0 0 0 0 0 0 0 0 0 0 0 0 0 0 0 0 0 0 0 0 0 0 0 0 0 0 0 0 0 -0 0
0 0 0 0 0 0 0 0 0 0 0 0 0 0 0 0 0 0 0 0 0 0 0 0 0 0 0 0 0 0 0 0 0 0 0 0 0 0 0 0 -0 -0 -0 -0
0 0 0 0 0 0 0 0 0 0 0 0 0 -0 0 0 0 0 0 0 0 0 0 0 0 0 0 0 0 0 0 0 0 0 0 0 0 0 0 0 -0 -0 -0 0
0 0 0 0 0 0 0 0 0 0 0 0 0 0 0 0 0 0 0 0 0 0 0 0 0 0 0 0 0 0 0 0 0 0 0 0 0 0 0 0 0 -0 -0 -0
0 0 0 0 0 0 0 0 0 0 0 0 0 0 0 0 0 0 0 0 0 0 0 0 0 0 0 0 0 0 0 0 0 0 0 0 0 0 0 -0 0 -0 -0 -0
0 0 0 0 0 0 0 0 0 0 0 0 0 0 0 0 0 0 0 0 0 0 0 0 0 0 0 0 0 0 0 0 0 0 0 0 0 0 0 -0 -0 0 -0 0
0 0 0 0 0 0 0 0 0 0 0 0 0 0 0 0 0 0 0 0 0 0 0 0 0 0 0 0 0 0 -0 0 0 0 0 0 0 0 -0 0 -0 -0 -0 0
0 0 0 0 0 0 0 0 0 0 0 0 0 0 0 0 0 0 0 0 0 0 0 0 0 0 0 0 0 0 -0 0 0 0 0 0 0 0 -0 0 0 0 0 0
0 0 0 0 0 0 0 0 0 0 0 0 0 0 0 0 0 -0 0 0 0 0 0 0 0 0 0 0 0 0 0 0 0 0 -0 0 0 0 0 0 0 0 0 0
0 0 0 0 0 0 0 0 0 0 0 0 0 0 0 0 0 0 0 0 0 0 -0 0 -0 0 -0 0 -0 0 -0 -0 0 0 -0 -0 0 0 0 0 0 0 0 0
0 0 0 0 0 0 0 0 0 0 0 0 0 0 0 -0 0 -0 -0 -0 0 0 0 -0 -0 0 -0 0 -0 -0 -0 -0 -0 -0 -0 -0 -0 -0 -0 0 0 0 0 0
0 0 0 0 0 0 0 0 0 0 0 0 0 0 0 -0 -0 -0 -0 -0 0 0 -0 0 0 -0 0 -0 -0 -0 -0 0 0 -0 -0 -0 -0 -0 -0 0 0 0 0 0
0 0 0 0 0 0 0 0 0 0 -0 -0 -0 -0 -0 -0 -0 -0 0 -0 -0 -0 0 0 -0 -0 -0 -0 0 -0 -0 -0 -0 -0 -0 0 0 -0 0 0 0 0 0 0
0 0 0 0 0 0 0 0 0 0 0 0 -0 -0 -0 -0 -0 -0 0 0 0 0 0 -0 0 -0 -0 -0 0 0 -0 -0 -0 -0 0 -0 -0 -0 0 0 0 0 0 0
0 0 0 0 0 0 0 0 0 0 0 -0 -0 -0 -0 -0 0 -0 -0 -0 0 0 0 0 -0 -0 -0 0 -0 0 0 0 -0 -0 -0 0 -0 -0 -0 0 0 0 0 0
0 0 0 0 0 0 0 0 0 0 -0 -0 -0 -0 -0 0 0 0 0 0 0 -0 -0 -0 -0 -0 -0 -0 -0 0 0 0 0 -0 0 0 -0 -0 -0 0 0 0 0 0
Wind_Speed_500mb
59 60 59 60 62 62 57 27 7 33 34 16 9 3 8 10 9 12 7 2 8 7 5 8 7 11 12 13 7 7 9 7 13 28 42 23 20 20 19 9 11 10 11 36
57 55 53 52 51 52 57 30 13 22 26 8 7 12 8 5 9 8 8 7 3 6 4 7 10 10 14 28 11 8 9 6 12 14 7 4 7 8 15 24 26 35 25 20
56 55 50 44 40 36 39 19 8 13 21 14 6 9 7 9 15 6 11 8 4 10 7 11 14 20 9 3 22 39 27 10 17 20 30 21 43 44 34 27 15 33 28 50
54 54 51 45 35 25 22 18 6 6 8 7 8 3 5 6 10 14 18 7 5 5 7 13 12 9 12 18 23 3 13 11 17 31 42 42 47 49 44 36 38 26 41 36
51 50 50 47 36 18 15 12 13 10 22 19 6 4 6 2 4 6 11 9 15 8 12 20 41 20 10 14 9 3 1 8 10 28 36 37 43 38 30 24 11 21 31 52
47 47 45 43 38 24 10 10 10 14 9 6 4 5 6 3 18 13 22 16 21 18 23 33 56 61 58 31 11 6 7 5 5 14 9 28 13 5 2 8 16 25 36 47
44 45 42 41 32 33 19 14 14 9 8 3 7 12 29 23 11 16 40 46 8 12 58 68 44 24 25 22 26 34 6 3 5 10 14 7 3 8 3 22 32 34 30 24
39 40 38 35 33 23 22 15 9 7 8 11 33 25 8 34 33 13 29 22 23 38 34 10 14 9 9 1 5 11 21 2 7 6 5 19 2 3 11 21 56 4 18 44
38 37 36 32 27 26 25 15 11 13 15 9 18 12 36 9 8 11 9 25 21 25 5 6 5 6 6 9 17 1 7 14 5 5 8 9 4 5 39 15 14 10 42 40
36 35 35 34 31 26 23 21 15 21 16 42 27 9 8 18 17 7 20 16 16 8 5 3 2 6 1 6 7 7 8 6 11 12 10 14 5 24 23 7 12 53 56 63
34 34 35 36 35 30 28 29 25 26 24 67 74 63 51 39 21 11 22 20 5 6 4 4 5 4 6 5 8 7 5 6 5 5 5 12 20 9 5 14 39 58 67 71
35 35 35 36 36 35 34 35 29 30 36 55 78 89 85 89 85 61 26 12 5 11 5 5 5 7 6 7 8 6 7 10 5 11 10 8 35 31 42 42 48 60 64 79
37 36 36 37 37 37 32 35 32 38 41 57 42 42 40 21 34 32 30 24 30 19 22 12 6 12 4 7 11 7 8 9 7 2 9 16 28 38 42 36 45 61 67 67
39 39 38 38 39 37 25 22 21 19 26 12 18 19 73 81 43 43 58 61 34 31 18 10 5 5 16 7 11 11 13 9 9 10 19 28 19 22 42 44 47 55 59 54
39 40 38 38 37 27 24 24 25 23 17 12 44 81 5 35 28 22 40 56 54 18 10 7 6 8 7 9 8 10 17 13 7 9 9 11 25 36 42 44 47 48 52 54
38 37 36 31 24 22 24 9 1 15 31 17 9 26 37 17 32 22 27 46 53 35 14 11 13 15 12 7 7 17 40 44 45 12 14 29 43 36 39 40 38 41 36 40
36 36 34 27 23 23 12 12 20 31 29 11 16 15 16 35 22 7 9 35 29 26 18 13 14 15 18 6 16 18 25 35 30 26 23 26 16 16 33 29 31 29 27 29
36 37 36 33 31 30 7 5 14 19 19 12 7 10 19 22 14 7 5 12 20 19 13 7 8 8 15 10 31 38 39 19 10 15 18 34 25 21 29 23 28 31 33 34
35 33 27 28 3 1 6 24 34 33 19 8 8 5 10 25 16 16 10 16 7 14 6 9 13 8 13 20 34 36 26 5 11 5 10 13 14 13 19 19 24 28 32 30
27 20 10 6 2 19 34 8 5 6 12 13 9 9 9 19 9 11 12 12 6 5 9 8 7 10 52 54 37 20 6 15 8 4 11 18 15 5 10 13 19 21 23 26
14 7 7 20 25 23 5 7 7 10 6 9 10 12 9 18 8 6 9 7 5 5 7 6 5 7 5 5 15 13 14 19 4 7 10 10 13 8 5 12 18 18 22 26
14 19 30 19 6 6 5 6 6 8 4 4 6 18 20 15 12 7 11 6 3 10 15 4 6 6 1 15 10 15 21 15 5 9 15 11 17 13 10 14 19 23 22 23
14 5 6 7 7 7 9 8 6 5 5 6 19 16 11 9 14 12 5 7 10 8 5 6 8 4 13 14 16 25 22 8 5 18 15 16 19 14 18 18 22 26 27 28
5 3 9 9 9 9 8 6 2 5 8 21 35 20 9 8 5 6 8 9 5 6 3 7 5 8 15 9 21 25 21 13 23 20 15 20 26 21 21 21 26 31 32 35
8 8 10 11 22 17 10 13 22 30 14 36 30 18 10 7 8 7 8 6 6 7 3 5 14 8 14 14 24 24 17 10 17 19 15 21 28 27 30 25 30 40 35 37
13 18 13 18 16 25 29 28 20 5 14 28 14 7 7 9 8 7 10 5 2 9 9 37 5 17 10 16 22 20 11 3 14 17 16 23 31 34 33 29 36 33 36 40
14 16 39 41 33 33 35 35 42 30 27 3 6 6 11 8 8 7 5 5 6 41 43 19 5 3 6 17 21 17 11 9 20 18 20 24 26 28 33 37 31 28 32 46
Wind_Direction_500mb
345 346 347 348 348 352 1 360 16 358 11 47 34 58 320 322 317 350 300 196 221 241 299 280 257 239 218 200 187 241 206 255 272 277 270 269 240 254 234 243 246 245 271 281
345 347 349 350 352 357 357 347 319 3 16 73 354 318 311 279 336 321 9 312 263 50 265 337 232 247 270 268 182 225 191 245 298 304 26 8 202 194 230 242 258 262 269 261
344 345 349 352 351 357 359 355 358 357 49 74 81 355 296 310 326 278 348 281 28 9 295 222 273 277 286 302 265 280 273 210 228 259 270 285 288 284 274 258 264 284 265 290
345 346 349 351 354 356 9 11 12 11 316 350 341 246 294 315 342 344 325 314 96 9 293 291 251 256 292 288 283 254 170 255 239 250 261 271 273 277 281 273 271 274 298 297
345 348 351 353 358 16 36 22 357 340 300 307 325 202 227 335 325 247 292 240 291 251 221 233 287 293 301 243 312 249 175 265 264 271 264 265 273 275 277 280 290 281 287 288
349 353 355 355 360 10 49 3 330 324 294 331 1 248 290 331 341 278 238 286 311 296 269 279 278 274 271 244 217 219 249 266 286 277 334 307 278 219 144 290 285 296 291 300
351 353 355 357 13 19 19 347 340 320 281 302 230 291 300 290 261 270 286 298 227 290 311 308 301 279 259 233 236 223 254 228 230 291 338 318 194 97 285 283 283 283 290 320
345 351 354 354 358 7 9 344 325 286 280 260 288 265 245 314 298 258 268 288 315 322 315 340 338 344 9 359 192 198 217 257 299 291 250 280 170 40 314 320 310 75 339 321
338 341 346 348 348 347 347 356 305 280 303 253 264 318 311 286 306 314 256 314 314 326 43 35 31 291 302 309 326 37 167 229 196 294 275 275 147 296 324 310 280 15 334 317
335 336 338 342 341 335 333 334 309 285 255 280 274 224 296 306 292 264 287 335 318 339 47 49 233 286 225 278 285 288 314 323 237 259 261 277 38 344 326 36 291 318 319 311
331 331 333 335 337 334 318 307 310 281 268 278 278 279 267 268 242 269 300 336 314 13 96 170 259 238 260 305 251 224 232 281 248 251 267 289 6 5 353 279 306 305 307 308
326 327 327 328 330 328 318 304 322 294 277 267 281 284 278 272 266 264 251 236 253 240 116 225 269 263 262 243 281 203 256 200 255 209 238 251 333 303 298 303 304 308 308 315
320 324 326 325 324 323 317 304 313 298 288 297 290 291 290 277 303 276 228 232 230 224 235 171 210 251 216 243 234 238 264 163 234 359 251 251 296 300 302 300 318 318 318 317
315 317 320 320 323 325 328 308 303 304 299 292 294 303 297 300 282 245 242 253 242 229 209 208 192 217 198 240 257 252 260 175 238 251 279 291 282 288 323 327 330 324 327 335
313 316 319 320 323 328 329 317 297 289 287 281 294 307 325 316 315 277 243 235 223 202 182 212 221 219 243 239 248 240 185 203 209 256 254 279 285 316 322 331 330 329 331 339
311 316 321 325 332 330 342 320 25 358 349 315 297 306 298 333 322 288 230 219 220 214 205 211 220 235 210 260 260 249 251 249 254 241 291 299 302 313 333 330 335 332 334 342
310 313 316 309 316 312 294 265 282 308 305 276 294 289 299 331 329 323 199 207 207 211 230 234 236 219 203 245 262 262 283 287 271 254 290 290 286 327 338 341 341 349 359 356
312 315 316 310 300 299 292 336 324 288 289 252 273 287 304 347 320 307 194 175 207 213 232 228 200 208 211 252 248 271 276 284 255 276 282 287 294 340 347 352 353 7 8 7
320 320 320 303 300 306 276 288 282 268 242 266 251 301 299 330 326 297 230 182 203 230 229 217 185 212 226 238 251 270 283 202 135 254 322 342 277 331 359 4 12 14 10 8
328 330 328 303 273 307 309 306 236 219 216 238 265 261 269 303 318 297 312 215 227 233 220 194 224 257 260 266 275 273 255 163 161 308 349 342 318 10 14 14 22 26 17 26
339 325 273 294 303 310 260 265 227 185 232 222 262 266 262 275 236 269 263 286 258 272 232 211 255 268 278 73 116 115 127 133 140 357 349 339 347 44 38 26 38 46 30 51
305 298 297 311 308 251 269 243 219 210 241 164 252 259 252 268 231 260 273 260 311 254 146 218 264 258 73 142 113 114 119 111 74 70 70 42 54 62 59 54 58 62 59 63
318 277 282 264 248 245 227 217 218 228 102 311 302 296 262 235 234 248 270 260 239 107 200 237 236 358 148 138 124 120 107 96 135 125 80 63 73 72 81 69 75 83 79 86
269 243 262 222 218 237 205 219 301 11 331 334 331 290 255 270 225 234 260 244 288 240 224 247 310 339 157 134 139 121 98 85 131 122 85 74 70 82 85 79 89 92 88 104
237 218 241 233 240 262 265 286 302 313 330 345 336 308 249 265 255 216 254 247 277 329 339 281 329 141 152 146 145 124 113 107 143 141 106 82 79 88 90 83 99 97 90 104
224 229 240 260 278 278 272 276 278 280 334 349 336 308 304 272 291 226 230 251 329 342 335 321 299 144 140 155 151 126 156 161 163 156 139 107 91 87 90 91 102 101 104 110
225 238 226 232 242 252 261 273 280 292 319 32 312 294 238 291 266 243 23 14 312 320 317 327 290 130 129 148 153 131 214 166 142 149 153 131 113 95 90 92 104 110 106 123
Wind_Speed_850mb
59 60 59 60 62 62 57 27 7 33 34 16 9 3 8 10 9 12 7 2 8 7 5 8 7 11 12 13 7 7 9 7 13 28 42 23 20 20 19 9 11 10 11 36
57 55 53 52 51 52 57 30 13 22 26 8 7 12 8 5 9 8 8 7 3 6 4 7 10 10 14 28 11 8 9 6 12 14 7 4 7 8 15 24 26 35 25 20
56 55 50 44 40 36 39 19 8 13 21 14 6 9 7 9 15 6 11 8 4 10 7 11 14 20 9 3 22 39 27 10 17 20 30 21 43 44 34 27 15 33 28 50
54 54 51 45 35 25 22 18 6 6 8 7 8 3 5 6 10 14 18 7 5 5 7 13 12 9 12 18 23 3 13 11 17 31 42 42 47 49 44 36 38 26 41 36
51 50 50 47 36 18 15 12 13 10 22 19 6 4 6 2 4 6 11 9 15 8 12 20 41 20 10 14 9 3 1 8 10 28 36 37 43 38 30 24 11 21 31 52
47 47 45 43 38 24 10 10 10 14 9 6 4 5 6 3 18 13 22 16 21 18 23 33 56 61 58 31 11 6 7 5 5 14 9 28 13 5 2 8 16 25 36 47
44 45 42 41 32 33 19 14 14 9 8 3 7 12 29 23 11 16 40 46 8 12 58 68 44 24 25 22 26 34 6 3 5 10 14 7 3 8 3 22 32 34 30 24
39 40 38 35 33 23 22 15 9 7 8 11 33 25 8 34 33 13 29 22 23 38 34 10 14 9 9 1 5 11 21 2 7 6 5 19 2 3 11 21 56 4 18 44
38 37 36 32 27 26 25 15 11 13 15 9 18 12 36 9 8 11 9 25 21 25 5 6 5 6 6 9 17 1 7 14 5 5 8 9 4 5 39 15 14 10 42 40
36 35 35 34 31 26 23 21 15 21 16 42 27 9 8 18 17 7 20 16 16 8 5 3 2 6 1 6 7 7 8 6 11 12 10 14 5 24 23 7 12 53 56 63
34 34 35 36 35 30 28 29 25 26 24 67 74 63 51 39 21 11 22 20 5 6 4 4 5 4 6 5 8 7 5 6 5 5 5 12 20 9 5 14 39 58 67 71
35 35 35 36 36 35 34 35 29 30 36 55 78 89 85 89 85 61 26 12 5 11 5 5 5 7 6 7 8 6 7 10 5 11 10 8 35 31 42 42 48 60 64 79
37 36 36 37 37 37 32 35 32 38 41 57 42 42 40 21 34 32 30 24 30 19 22 12 6 12 4 7 11 7 8 9 7 2 9 16 28 38 42 36 45 61 67 67
39 39 38 38 39 37 25 22 21 19 26 12 18 19 73 81 43 43 58 61 34 31 18 10 5 5 16 7 11 11 13 9 9 10 19 28 19 22 42 44 47 55 59 54
39 40 38 38 37 27 24 24 25 23 17 12 44 81 5 35 28 22 40 56 54 18 10 7 6 8 7 9 8 10 17 13 7 9 9 11 25 36 42 44 47 48 52 54
38 37 36 31 24 22 24 9 1 15 31 17 9 26 37 17 32 22 27 46 53 35 14 11 13 15 12 7 7 17 40 44 45 12 14 29 43 36 39 40 38 41 36 40
36 36 34 27 23 23 12 12 20 31 29 11 16 15 16 35 22 7 9 35 29 26 18 13 14 15 18 6 16 18 25 35 30 26 23 26 16 16 33 29 31 29 27 29
36 37 36 33 31 30 7 5 14 19 19 12 7 10 19 22 14 7 5 12 20 19 13 7 8 8 15 10 31 38 39 19 10 15 18 34 25 21 29 23 28 31 33 34
35 33 27 28 3 1 6 24 34 33 19 8 8 5 10 25 16 16 10 16 7 14 6 9 13 8 13 20 34 36 26 5 11 5 10 13 14 13 19 19 24 28 32 30
27 20 10 6 2 19 34 8 5 6 12 13 9 9 9 19 9 11 12 12 6 5 9 8 7 10 52 54 37 20 6 15 8 4 11 18 15 5 10 13 19 21 23 26
14 7 7 20 25 23 5 7 7 10 6 9 10 12 9 18 8 6 9 7 5 5 7 6 5 7 5 5 15 13 14 19 4 7 10 10 13 8 5 12 18 18 22 26
14 19 30 19 6 6 5 6 6 8 4 4 6 18 20 15 12 7 11 6 3 10 15 4 6 6 1 15 10 15 21 15 5 9 15 11 17 13 10 14 19 23 22 23
14 5 6 7 7 7 9 8 6 5 5 6 19 16 11 9 14 12 5 7 10 8 5 6 8 4 13 14 16 25 22 8 5 18 15 16 19 14 18 18 22 26 27 28
5 3 9 9 9 9 8 6 2 5 8 21 35 20 9 8 5 6 8 9 5 6 3 7 5 8 15 9 21 25 21 13 23 20 15 20 26 21 21 21 26 31 32 35
8 8 10 11 22 17 10 13 22 30 14 36 30 18 10 7 8 7 8 6 6 7 3 5 14 8 14 14 24 24 17 10 17 19 15 21 28 27 30 25 30 40 35 37
13 18 13 18 16 25 29 28 20 5 14 28 14 7 7 9 8 7 10 5 2 9 9 37 5 17 10 16 22 20 11 3 14 17 16 23 31 34 33 29 36 33 36 40
14 16 39 41 33 33 35 35 42 30 27 3 6 6 11 8 8 7 5 5 6 41 43 19 5 3 6 17 21 17 11 9 20 18 20 24 26 28 33 37 31 28 32 46
Wind_Direction_850mb
345 346 347 348 348 352 1 360 16 358 11 47 34 58 320 322 317 350 300 196 221 241 299 280 257 239 218 200 187 241 206 255 272 277 270 269 240 254 234 243 246 245 271 281
345 347 349 350 352 357 357 347 319 3 16 73 354 318 311 279 336 321 9 312 263 50 265 337 232 247 270 268 182 225 191 245 298 304 26 8 202 194 230 242 258 262 269 261
344 345 349 352 351 357 359 355 358 357 49 74 81 355 296 310 326 278 348 281 28 9 295 222 273 277 286 302 265 280 273 210 228 259 270 285 288 284 274 258 264 284 265 290
345 346 349 351 354 356 9 11 12 11 316 350 341 246 294 315 342 344 325 314 96 9 293 291 251 256 292 288 283 254 170 255 239 250 261 271 273 277 281 273 271 274 298 297
345 348 351 353 358 16 36 22 357 340 300 307 325 202 227 335 325 247 292 240 291 251 221 233 287 293 301 243 312 249 175 265 264 271 264 265 273 275 277 280 290 281 287 288
349 353 355 355 360 10 49 3 330 324 294 331 1 248 290 331 341 278 238 286 311 296 269 279 278 274 271 244 217 219 249 266 286 277 334 307 278 219 144 290 285 296 291 300
351 353 355 357 13 19 19 347 340 320 281 302 230 291 300 290 261 270 286 298 227 290 311 308 301 279 259 233 236 223 254 228 230 291 338 318 194 97 285 283 283 283 290 320
345 351 354 354 358 7 9 344 325 286 280 260 288 265 245 314 298 258 268 288 315 322 315 340 338 344 9 359 192 198 217 257 299 291 250 280 170 40 314 320 310 75 339 321
338 341 346 348 348 347 347 356 305 280 303 253 264 318 311 286 306 314 256 314 314 326 43 35 31 291 302 309 326 37 167 229 196 294 275 275 147 296 324 310 280 15 334 317
335 336 338 342 341 335 333 334 309 285 255 280 274 224 296 306 292 264 287 335 318 339 47 49 233 286 225 278 285 288 314 323 237 259 261 277 38 344 326 36 291 318 319 311
331 331 333 335 337 334 318 307 310 281 268 278 278 279 267 268 242 269 300 336 314 13 96 170 259 238 260 305 251 224 232 281 248 251 267 289 6 5 353 279 306 305 307 308
326 327 327 328 330 328 318 304 322 294 277 267 281 284 278 272 266 264 251 236 253 240 116 225 269 263 262 243 281 203 256 200 255 209 238 251 333 303 298 303 304 308 308 315
320 324 326 325 324 323 317 304 313 298 288 297 290 291 290 277 303 276 228 232 230 224 235 171 210 251 216 243 234 238 264 163 234 359 251 251 296 300 302 300 318 318 318 317
315 317 320 320 323 325 328 308 303 304 299 292 294 303 297 300 282 245 242 253 242 229 209 208 192 217 198 240 257 252 260 175 238 251 279 291 282 288 323 327 330 324 327 335
313 316 319 320 323 328 329 317 297 289 287 281 294 307 325 316 315 277 243 235 223 202 182 212 221 219 243 239 248 240 185 203 209 256 254 279 285 316 322 331 330 329 331 339
311 316 321 325 332 330 342 320 25 358 349 315 297 306 298 333 322 288 230 219 220 214 205 211 220 235 210 260 260 249 251 249 254 241 291 299 302 313 333 330 335 332 334 342
310 313 316 309 316 312 294 265 282 308 305 276 294 289 299 331 329 323 199 207 207 211 230 234 236 219 203 245 262 262 283 287 271 254 290 290 286 327 338 341 341 349 359 356
312 315 316 310 300 299 292 336 324 288 289 252 273 287 304 347 320 307 194 175 207 213 232 228 200 208 211 252 248 271 276 284 255 276 282 287 294 340 347 352 353 7 8 7
320 320 320 303 300 306 276 288 282 268 242 266 251 301 299 330 326 297 230 182 203 230 229 217 185 212 226 238 251 270 283 202 135 254 322 342 277 331 359 4 12 14 10 8
328 330 328 303 273 307 309 306 236 219 216 238 265 261 269 303 318 297 312 215 227 233 220 194 224 257 260 266 275 273 255 163 161 308 349 342 318 10 14 14 22 26 17 26
339 325 273 294 303 310 260 265 227 185 232 222 262 266 262 275 236 269 263 286 258 272 232 211 255 268 278 73 116 115 127 133 140 357 349 339 347 44 38 26 38 46 30 51
305 298 297 311 308 251 269 243 219 210 241 164 252 259 252 268 231 260 273 260 311 254 146 218 264 258 73 142 113 114 119 111 74 70 70 42 54 62 59 54 58 62 59 63
318 277 282 264 248 245 227 217 218 228 102 311 302 296 262 235 234 248 270 260 239 107 200 237 236 358 148 138 124 120 107 96 135 125 80 63 73 72 81 69 75 83 79 86
269 243 262 222 218 237 205 219 301 11 331 334 331 290 255 270 225 234 260 244 288 240 224 247 310 339 157 134 139 121 98 85 131 122 85 74 70 82 85 79 89 92 88 104
237 218 241 233 240 262 265 286 302 313 330 345 336 308 249 265 255 216 254 247 277 329 339 281 329 141 152 146 145 124 113 107 143 141 106 82 79 88 90 83 99 97 90 104
224 229 240 260 278 278 272 276 278 280 334 349 336 308 304 272 291 226 230 251 329 342 335 321 299 144 140 155 151 126 156 161 163 156 139 107 91 87 90 91 102 101 104 110
225 238 226 232 242 252 261 273 280 292 319 32 312 294 238 291 266 243 23 14 312 320 317 327 290 130 129 148 153 131 214 166 142 149 153 131 113 95 90 92 104 110 106 123